Weather History for KEPH - October, 2013

Change the Weather History Date:

Tuesday, October 15, 2013

  Actual Average Record
Temperature  
Mean Temperature 46 °F 51 °F  
Max Temperature 62 °F 63 °F 80 °F (1963)
Min Temperature 30 °F 39 °F 29 °F (1992)
Degree Days  
Heating Degree Days 19 14  
Month to date heating degree days 211 163  
Since 1 July heating degree days 319 290  
Cooling Degree Days 0 0  
Month to date cooling degree days 0 0  
Year to date cooling degree days 1084 769  
Moisture  
Dew Point 28 °F    
Average Humidity 51    
Maximum Humidity 75    
Minimum Humidity 27    
Precipitation  
Precipitation 0.00 in 0.02 in 0.24 in (2006)
Month to date precipitation T 0.20  
Year to date precipitation 4.97 5.22  
Sea Level Pressure  
Sea Level Pressure 30.32 in    
Wind  
Wind Speed 4 mph (NNE)    
Max Wind Speed 8 mph    
Max Gust Speed -    
Visibility 10 miles    
Events      
T = Trace of Precipitation, MM = Missing Value Source: NWS Daily Summary

Daily Weather History Graph

Daily Weather History Graph

Search for Another Location

Airport or City:

Trip Planner

Search our weather history database for the weather conditions in past years. The results will help you decide how hot, cold, wet, or windy it might be!

Date:

Astronomy

Oct. 15, 2013 Rise Set
Actual Time 7:16 AM PDT 6:09 PM PDT
Civil Twilight 6:46 AM PDT 6:40 PM PDT
Nautical Twilight 6:10 AM PDT 7:16 PM PDT
Astronomical Twilight 5:35 AM PDT 7:51 PM PDT
Moon 4:28 PM PDT (10/15) 3:32 AM PDT (10/15)
Length of Visible Light 11h 54m
Length of Day
10h 52m
Waxing Gibbous, 88% of the Moon is Illuminated
Oct 15
Waxing Gibbous
Oct 18
Full
Oct 26
Last Quarter
Nov 3
New
Nov 9
First Quarter

Hourly Weather History & Observations

Time (PDT) Temp. Windchill Dew Point Humidity Pressure Visibility Wind Dir Wind Speed Gust Speed Precip Events Conditions
12:53 AM 42.1 °F 40.2 °F 25.0 °F 51% 30.41 in 10.0 mi North 3.5 mph - N/A   Clear
1:53 AM 39.9 °F 35.8 °F 28.0 °F 63% 30.41 in 10.0 mi North 5.8 mph - N/A   Clear
2:53 AM 36.0 °F 32.1 °F 27.0 °F 70% 30.41 in 10.0 mi North 4.6 mph - N/A   Clear
3:53 AM 34.0 °F 31.0 °F 26.1 °F 73% 30.40 in 10.0 mi North 3.5 mph - N/A   Clear
4:53 AM 34.0 °F 31.0 °F 25.0 °F 70% 30.40 in 10.0 mi NNE 3.5 mph - N/A   Clear
5:53 AM 33.1 °F 27.7 °F 25.0 °F 72% 30.40 in 10.0 mi North 5.8 mph - N/A   Clear
6:53 AM 32.0 °F 28.7 °F 25.0 °F 75% 30.42 in 10.0 mi NNE 3.5 mph - N/A   Clear
7:53 AM 32.0 °F 26.4 °F 25.0 °F 75% 30.43 in 10.0 mi North 5.8 mph - N/A   Clear
8:53 AM 43.0 °F 39.5 °F 30.9 °F 62% 30.42 in 10.0 mi NNE 5.8 mph - N/A   Clear
9:53 AM 48.0 °F - 33.1 °F 56% 30.40 in 10.0 mi Variable 5.8 mph - N/A   Clear
10:53 AM 50.0 °F - 33.1 °F 52% 30.39 in 10.0 mi Calm Calm - N/A   Clear
11:53 AM 54.0 °F - 30.9 °F 41% 30.37 in 10.0 mi Calm Calm - N/A   Clear
12:53 PM 57.9 °F - 30.0 °F 35% 30.33 in 10.0 mi Variable 4.6 mph - N/A   Clear
1:53 PM 61.0 °F - 28.9 °F 30% 30.30 in 10.0 mi SSW 8.1 mph - N/A   Clear
2:53 PM 60.1 °F - 28.0 °F 30% 30.28 in 10.0 mi Variable 4.6 mph - N/A   Clear
3:53 PM 60.1 °F - 26.1 °F 27% 30.25 in 10.0 mi South 8.1 mph - N/A   Clear
4:53 PM 60.1 °F - 27.0 °F 28% 30.24 in 10.0 mi South 8.1 mph - N/A   Clear
5:53 PM 55.9 °F - 28.0 °F 34% 30.23 in 10.0 mi South 8.1 mph - N/A   Clear
6:53 PM 48.0 °F - 27.0 °F 44% 30.23 in 10.0 mi SSE 3.5 mph - N/A   Clear
7:53 PM 50.0 °F - 28.9 °F 44% 30.21 in 10.0 mi Calm Calm - N/A   Clear
8:53 PM 46.9 °F - 28.0 °F 48% 30.19 in 10.0 mi Calm Calm - N/A   Clear
9:53 PM 46.0 °F 44.8 °F 28.9 °F 51% 30.19 in 10.0 mi NNE 3.5 mph - N/A   Clear
10:53 PM 46.0 °F 43.9 °F 30.0 °F 54% 30.17 in 10.0 mi North 4.6 mph - N/A   Clear
11:53 PM 43.0 °F 39.5 °F 28.9 °F 58% 30.17 in 10.0 mi North 5.8 mph - N/A   Clear